Location: Stamford Observatory
(41.1241°N, 73.5498°W)
Time: 05:36:12
(UTC-04:00)

Daily predictions for brighter satellites

Satellite Brightness Start Highest point End
(mag) Time Altitude Azimuth Time Altitude Azimuth Time Altitude Azimuth
ALOS 2 3.1 00:07:05 52° NE 00:07:05 52° NE 00:10:55 10° N
H-2A R/B 3.9 00:07:09 17° WSW 00:08:03 17° W 00:11:22 10° NW
NOSS 3-2 (C) 3.4 00:08:05 64° SE 00:08:24 65° ESE 00:14:57 10° NE
Cosmos 1408 Rocket 4.0 00:09:33 56° NE 00:09:33 56° NE 00:13:15 10° NNE
Cosmos 1417 Rocket 4.3 00:04:58 10° N 00:11:08 82° E 00:11:56 68° SSE
Cosmos 1553 Rocket 4.0 00:09:59 10° N 00:16:20 68° E 00:17:19 59° SE
Cosmos 2082 Rocket 3.4 00:18:14 29° E 00:18:14 29° E 00:22:22 10° NE
Helios 1A Rocket 4.3 00:15:30 10° NNE 00:18:03 32° NE 00:18:03 32° NE
Cosmos 1707 4.2 00:24:10 34° NW 00:24:10 34° NW 00:27:08 10° N
Cosmos 1833 Rocket 4.1 00:25:27 25° E 00:25:27 25° E 00:29:20 10° NE
Cosmos 1943 Rocket 4.1 00:24:00 10° WNW 00:27:24 17° W 00:27:40 17° WSW
Cosmos 468 Rocket 4.0 00:30:14 10° NNW 00:35:15 75° WNW 00:35:15 75° WNW
Cosmos 1743 Rocket 4.2 00:37:16 50° NE 00:37:16 50° NE 00:40:47 10° NNE
ISS 0.1 00:36:53 10° NNW 00:38:31 13° N 00:40:09 10° NNE
Meteor 1-24 Rocket 4.0 00:39:20 56° WSW 00:40:11 62° WNW 00:46:05 10° N
Cosmos 2266 Rocket 4.1 00:41:55 57° SE 00:42:42 61° E 00:49:00 10° NNE
Cosmos 1814 Rocket 4.0 00:37:42 10° NNW 00:42:46 74° W 00:42:46 74° W
S3M 3.9 00:37:29 10° N 00:43:42 73° W 00:44:21 67° SW
H-2A R/B 3.7 00:46:22 10° N 00:49:07 34° NW 00:49:07 34° NW
Cosmos 1766 Rocket 4.5 00:51:41 43° WNW 00:51:41 43° WNW 00:55:31 10° N
NOSS 3-2 (A) 4.0 00:50:05 37° WSW 00:52:21 56° NW 00:58:57 10° NNE
Cosmos 1500 Rocket 4.3 00:54:40 49° NE 00:54:40 49° NE 00:58:00 10° NNE
Timation 2 Rocket 4.2 00:54:32 58° SW 00:56:02 80° WNW 01:02:53 10° NNE
CZ-2C R/B 2.9 00:52:00 10° NNE 00:57:28 58° E 00:57:28 58° E
Cosmos 1486 Rocket 4.2 00:58:22 61° WNW 00:58:30 62° WNW 01:03:40 10° NNE
Cosmos 2221 4.4 00:55:30 10° NW 00:58:04 22° WNW 00:58:04 22° WNW
Cosmos 1328 Rocket 4.1 00:55:52 10° N 00:59:20 54° NNW 00:59:20 54° NNW
CZ-4C R/B 2.9 00:58:46 39° W 01:00:17 49° NW 01:06:09 10° NNE
Meteor 2-20 4.3 01:00:24 73° S 01:01:03 88° ESE 01:07:15 10° N
Cosmos 1066 4.5 01:03:22 87° SW 01:03:27 89° W 01:08:57 10° N
In-Cosmos 22 4.1 01:08:53 77° WSW 01:09:07 79° W 01:14:49 10° N
Cosmos 1818 3.9 01:03:51 10° NW 01:08:30 52° W 01:08:30 52° W
Cosmos 2344 3.6 01:07:07 53° SSW 01:09:17 83° ESE 01:18:02 10° NE
Cosmos 1515 Rocket 4.1 01:09:17 10° NNW 01:12:52 54° NW 01:12:52 54° NW
Cosmos 1763 Rocket 3.5 01:09:50 10° NNW 01:14:50 70° WNW 01:14:50 70° WNW
CZ-4B R/B 4.1 01:17:49 16° WNW 01:17:49 16° WNW 01:18:57 10° NW
Meteor 1-21 Rocket 4.2 01:18:19 70° WSW 01:18:43 74° W 01:24:25 10° N
Lacrosse 5 2.8 01:14:47 10° NW 01:19:40 46° NE 01:21:51 29° E
Cosmos 2369 4.1 01:14:49 10° NW 01:19:53 50° W 01:19:53 50° W
USA 215 4.4 01:16:25 10° ENE 01:21:21 25° ESE 01:21:21 25° ESE
Meteor 2-2 Rocket 4.3 01:28:30 10° NNW 01:34:10 65° W 01:34:28 64° WSW
Cosmos 724 4.3 01:34:02 62° WSW 01:34:51 71° WNW 01:40:45 10° NNE
Cosmos 1980 Rocket 2.6 01:35:38 10° NNW 01:41:13 58° ENE 01:42:54 42° ESE
Cosmos 1805 Rocket 3.9 01:45:16 59° ENE 01:45:16 59° ENE 01:49:17 10° NNE
Lacrosse 5 rocket 3.5 01:45:50 10° NNW 01:49:34 27° NNE 01:53:25 10° E
ERS-2 4.3 01:48:41 10° NE 01:51:01 20° E 01:51:01 20° E
CENTAUR R/B 2.4 01:50:42 62° SSW 01:51:49 83° ESE 01:58:42 10° NE
Cosmos 1633 Rocket 3.8 01:52:36 45° E 01:52:36 45° E 01:56:46 10° NNE
Cosmos 2058 3.2 01:54:35 64° NNE 01:54:35 64° NNE 01:58:12 10° N
USA 32 3.9 01:49:15 10° N 01:54:31 78° W 01:54:47 75° SW
Cosmos 1300 3.5 01:52:12 10° N 01:55:21 50° NE 01:55:21 50° NE
Cosmos 1707 Rocket 3.6 01:55:00 10° N 01:59:04 74° NNE 01:59:04 74° NNE
BREEZE-M DEB (TANK) 4.3 01:56:45 10° NW 01:59:30 44° NNE 02:07:09 10° ESE
Cosmos 968 Rocket 4.0 01:59:30 43° ESE 01:59:58 44° ESE 02:04:50 10° NNE
Cosmos 1697 Rocket 2.7 01:55:41 10° NNW 02:01:16 60° WSW 02:01:24 60° WSW
Cosmos 2082 Rocket 3.1 02:00:04 34° W 02:01:26 39° WNW 02:06:44 10° N
Cosmos 1666 Rocket 3.7 02:02:21 69° ENE 02:02:21 69° ENE 02:06:25 10° NNE
Cosmos 1437 Rocket 4.2 01:58:31 10° NNW 02:00:53 30° NW 02:00:53 30° NW
CZ-2C R/B 3.4 02:05:11 52° WSW 02:05:27 53° W 02:11:01 10° NNW
Cosmos 2151 3.8 02:06:59 41° WNW 02:06:59 41° WNW 02:10:33 10° N
Cosmos 1151 Rocket 4.5 02:03:16 10° NNW 02:06:00 27° WNW 02:06:00 27° WNW
Cosmos 1833 Rocket 3.4 02:07:07 38° W 02:08:23 44° WNW 02:13:47 10° NNE
ATLAS 5 CENTAUR R/B 3.7 02:14:08 18° ESE 02:14:44 19° ESE 02:18:13 10° ENE
ISS -0.7 02:13:15 10° NNW 02:15:52 22° NNE 02:18:30 10° ENE
ASTEX 1 3.6 02:11:54 10° N 02:16:45 55° W 02:17:04 54° W
Cosmos 1933 Rocket 4.5 02:16:43 36° ESE 02:17:19 38° E 02:21:25 10° NNE
Cosmos 1726 2.6 02:16:41 10° N 02:19:41 57° N 02:19:41 57° N
Cosmos 332 Rocket 3.6 02:16:56 10° NNW 02:21:44 75° WSW 02:21:55 74° SW
Cosmos 1455 3.9 02:19:51 10° NNE 02:23:08 27° ENE 02:24:08 24° ESE
Cosmos 1538 Rocket 4.0 02:20:33 10° NNW 02:25:48 80° ENE 02:27:25 45° SSE
Landsat 4 4.2 02:30:13 50° NW 02:30:13 50° NW 02:33:11 10° NNW
Cosmos 2360 4.1 02:23:56 10° NNW 02:29:40 82° WSW 02:31:29 46° SSE
Cosmos 1745 Rocket 4.0 02:29:28 48° SSW 02:31:20 74° W 02:37:42 10° N
Sich 1 3.1 02:31:28 62° W 02:31:34 62° W 02:35:59 10° N
IRS-P3 4.2 02:26:18 10° NNE 02:31:39 73° ESE 02:33:03 49° S
SL-16 R/B 4.5 02:28:32 10° ESE 02:33:34 26° ENE 02:38:37 10° N
SL-08 R/B 3.7 02:33:32 36° SE 02:35:23 64° ENE 02:40:16 10° N
CZ-2C R/B 4.4 02:33:18 10° NNW 02:37:14 20° WNW 02:38:59 17° W
Nadezhda 1 Rocket 3.9 02:31:50 10° N 02:37:59 76° W 02:40:02 44° S
Cosmos 1777 Rocket 4.2 02:38:05 46° SSE 02:39:30 64° ESE 02:44:45 10° NNE
Cosmos 1626 2.9 02:40:53 40° ESE 02:41:19 42° E 02:44:53 10° NNE
Cosmos 1709 Rocket 4.3 02:39:54 31° SSE 02:42:56 62° E 02:49:06 10° NNE
USA 161 3.9 02:43:31 16° ENE 02:43:31 16° ENE 02:44:57 10° NNE
Cosmos 773 Rocket 4.3 02:38:20 10° NNW 02:43:27 64° ENE 02:46:33 24° SE
SL-16 R/B 2.4 02:38:38 10° NNW 02:44:20 71° ENE 02:48:36 18° SSE
CBERS-1 4.1 02:44:24 10° NNE 02:49:31 73° ESE 02:51:14 42° S
SL-14 R/B 4.2 02:51:16 33° WNW 02:51:16 33° WNW 02:54:35 10° N
Cosmos 1862 Rocket 3.6 02:48:12 10° N 02:52:42 78° E 02:54:04 44° SSE
Cosmos 2322 Rocket 2.1 02:50:18 10° NNW 02:55:57 87° WSW 02:59:24 24° SSE
Cosmos 1869 3.6 02:52:56 10° N 02:56:53 61° E 02:58:10 38° SE
ARIANE 5 R/B 3.8 02:52:39 10° NNE 02:57:15 34° E 03:00:18 18° SSE
Lacrosse 5 3.0 02:58:00 10° WNW 03:00:56 26° W 03:00:56 26° W
Cosmos 1703 3.7 03:02:50 44° W 03:03:03 44° W 03:06:53 10° N
USA 215 3.2 02:58:33 10° NE 03:05:07 85° NW 03:08:42 30° SW
ADEOS 3.6 03:02:17 10° NNE 03:07:32 77° ESE 03:09:57 33° S
Cosmos 1271 Rocket 2.7 03:06:15 10° NNW 03:09:59 57° W 03:10:13 56° WSW
ATLAS 2A CENTAUR R/B 4.4 03:06:54 20° S 03:11:09 28° SE 03:34:01 10° E
Cosmos 371 Rocket 3.9 03:08:13 10° NW 03:12:38 36° WSW 03:13:03 35° WSW
Cosmos 2221 Rocket 4.4 03:10:28 10° N 03:14:52 50° E 03:18:42 13° SSE
Cosmos 1869 Rocket 4.5 03:15:35 20° SSE 03:18:14 45° E 03:22:27 10° NNE
EO 1 Del DPAF 4.1 03:16:18 14° SE 03:19:25 50° ENE 03:23:13 10° N
CZ-2D R/B 3.2 03:14:47 10° NNE 03:19:42 39° E 03:24:00 13° SSE
Cosmos 1346 3.3 03:20:28 53° SSE 03:20:57 64° E 03:24:00 10° NNE
Cosmos 304 Rocket 3.8 03:19:44 10° NNW 03:24:36 81° ENE 03:29:25 10° SSE
Cosmos 1980 Rocket 3.6 03:20:48 10° NW 03:24:37 19° W 03:24:37 19° W
ERS-2 3.5 03:22:12 10° NNW 03:25:17 25° WNW 03:25:52 24° W
Cosmos 2360 Rocket 2.7 03:20:24 10° NNW 03:26:00 61° ENE 03:31:33 10° SE
BREEZE-M DEB (TANK) 3.8 03:22:09 10° NW 03:26:02 29° N 03:28:12 10° ENE
ATLAS CENTAUR R/B 3.8 03:22:05 10° NNW 03:26:09 28° NE 03:29:57 10° ESE
Lacrosse 5 rocket 1.6 03:24:46 10° NW 03:29:04 53° SW 03:33:30 10° SSE
NPP 4.3 03:24:33 10° N 03:29:35 41° WNW 03:32:03 26° WSW
Cosmos 1933 3.4 03:25:34 10° N 03:29:37 76° E 03:32:16 20° SSE
Cosmos 2112 Rocket 3.9 03:27:59 10° NNW 03:33:12 86° WSW 03:38:24 10° SSE
Meteor 1-4 Rocket 3.7 03:30:27 10° NNW 03:33:43 28° W 03:33:52 28° W
Cosmos 2181 Rocket 4.1 03:33:57 10° NNW 03:39:56 55° W 03:44:14 20° SSW
OAO 3 Rocket 3.6 03:40:41 29° SW 03:42:15 38° S 03:46:35 10° ESE
Cosmos 2292 Rocket 3.4 03:41:39 34° WSW 03:42:19 39° WNW 03:45:44 10° N
Cosmos 2219 3.9 03:38:06 16° S 03:42:33 52° ESE 03:48:06 10° NNE
CENTAUR R/B 4.3 03:38:14 10° W 03:43:25 25° NNW 03:49:05 10° NNE
Cosmos 2322 3.8 03:37:54 10° NNW 03:43:41 83° ENE 03:49:24 10° SSE
Cosmos 1703 Rocket 3.5 03:43:33 10° NNW 03:47:54 67° W 03:51:02 18° S
UNK 3.7 03:44:35 10° SSE 03:49:09 85° ENE 03:53:46 10° NNW
ISS -3.5 03:49:20 10° WNW 03:52:35 68° SW 03:55:49 10° SE
Cosmos 1455 3.8 03:56:03 10° NW 03:58:38 18° W 03:59:10 17° W
ATLAS 5 CENTAUR R/B 2.2 03:55:40 21° WSW 03:58:51 56° NW 04:04:03 10° NNE
USA 129 3.5 04:03:47 14° NNW 04:03:47 14° NNW 04:04:05 10° NNW
Cosmos 2298 Rocket 4.0 04:03:22 16° SSW 04:07:40 81° WNW 04:13:02 10° NNE
USA 229 DEB 3.8 04:03:01 15° SSW 04:08:51 79° ESE 04:15:52 10° NE
USA 229 3.8 04:03:06 15° SSW 04:08:58 79° ESE 04:15:59 10° NE
Cosmos 2074 Rocket 4.1 04:03:56 14° SSW 04:09:18 64° W 04:15:32 10° N
Resurs 1-4 Rocket 2.1 04:04:04 10° N 04:09:24 73° WNW 04:14:14 13° SSW
BREEZE-M DEB (TANK) 4.1 04:01:43 10° WNW 04:09:39 53° N 04:12:49 10° E
Okean 1-7 3.1 04:07:08 10° NNW 04:11:28 60° W 04:15:44 10° S
COSMOS 2428 3.0 04:09:20 10° NNW 04:15:01 74° ENE 04:20:41 10° SSE
Cosmos 2184 Rocket 4.2 04:09:43 13° SSW 04:15:26 60° W 04:21:43 10° N
SL-16 R/B 2.7 04:10:44 10° S 04:16:49 53° W 04:22:57 10° NNW
Cosmos 1626 4.4 04:15:37 10° W 04:16:58 12° WNW 04:18:29 10° NW
Cosmos 1680 Rocket 4.5 04:15:53 10° NW 04:20:12 27° W 04:24:23 10° SSW
Cosmos 1892 3.4 04:16:49 10° S 04:20:37 54° E 04:24:25 10° NNE
GPS 2-05 Rocket1 3.7 04:24:25 15° WSW 04:26:37 31° S 04:29:40 10° ESE
SL-16 R/B 3.8 04:24:32 10° WNW 04:27:44 16° W 04:30:22 12° SW
UNKNOWN OBJECT B 3.1 04:26:14 10° N 04:29:56 49° WNW 04:33:40 10° SSW
SME Rocket 3.7 04:23:21 10° S 04:30:05 69° WSW 04:34:41 10° NNW
Okean O Rocket 1.6 04:27:03 10° NNE 04:31:30 89° WNW 04:35:53 10° SSW
Cosmos 2237 Rocket 4.1 04:27:06 10° N 04:32:18 35° ENE 04:37:29 10° ESE
Cosmos 1674 Rocket 4.2 04:28:48 10° N 04:33:05 60° E 04:37:21 10° SSE
ARIANE 5 R/B 3.6 04:31:57 10° N 04:36:15 29° WNW 04:40:32 10° SW
Cosmos 2237 4.2 04:31:42 10° NNW 04:37:25 71° WSW 04:43:06 10° SSE
Cosmos 2322 Rocket 4.0 04:37:57 10° W 04:39:03 11° W 04:40:10 10° WSW
Thor Agena Rocket 3.6 04:35:24 10° SSE 04:40:42 80° WSW 04:46:01 10° NNW
GP-B 3.9 04:37:28 10° N 04:41:51 55° E 04:46:12 10° SSE
Meteor 2-3 Rocket 4.0 04:38:30 10° SSW 04:44:09 55° WNW 04:49:52 10° N
IRS-1C Rocket 4.3 04:40:03 10° N 04:45:16 61° WNW 04:50:27 10° SSW
Cosmos 2219 Rocket 2.7 04:42:19 10° NNW 04:47:55 68° ENE 04:53:28 10° SSE
OE (NEXTSAT) 4.5 04:44:48 10° WSW 04:48:23 73° SSE 04:51:59 10° ENE
Cosmos 1898 Rocket 4.1 04:45:20 10° SW 04:50:11 40° WNW 04:55:05 10° N
BREEZE-M DEB (TANK) 3.1 04:40:52 10° WSW 04:50:51 89° NW 04:53:59 10° ENE
Meteor 2-6 Rocket 4.4 04:45:43 10° N 04:51:10 76° E 04:56:44 10° SSE
H-2A R/B 4.4 04:45:18 10° WSW 04:52:28 50° S 05:46:24 10° ESE
Cosmos 389 Rocket 3.0 04:49:46 10° NNW 04:53:17 42° W 04:56:46 10° SSW
SWAS 4.5 04:49:42 10° NNW 04:54:02 89° WSW 04:58:20 10° SSE
Iridium 4 Rocket 3.7 04:50:02 10° N 04:54:16 59° E 04:58:21 10° SSE
Cosmos 1125 Rocket 4.5 04:50:28 10° S 04:55:31 48° ESE 05:00:37 10° NNE
Cosmos 1937 Rocket 3.9 04:51:30 10° SW 04:56:38 50° WNW 05:01:48 10° N
